Port Saint Joe - Mexico Beach Weather Center

Moon Phase Calendar



Online Cameras

 


      

Current Conditions in Port Saint Joe
10/26/2020 1:56:55 PM

82°F
Feels Like 89
Clouds
Humidity
78%
Pressure
30.03"
Wind
6.9 mph (N)
Dew Point
75°F
UV Index
7/10 (High)
Visibility
6 mi

Hourly Forecast

Date & Time Mon, Oct 26
1:00 PM
Mon, Oct 26
2:00 PM
Mon, Oct 26
3:00 PM
Mon, Oct 26
4:00 PM
Mon, Oct 26
5:00 PM
Mon, Oct 26
6:00 PM
Mon, Oct 26
7:00 PM
Mon, Oct 26
8:00 PM
Mon, Oct 26
9:00 PM
Mon, Oct 26
10:00 PM
Mon, Oct 26
11:00 PM
Tue, Oct 27
12:00 AM
Tue, Oct 27
1:00 AM
Tue, Oct 27
2:00 AM
Tue, Oct 27
3:00 AM
Tue, Oct 27
4:00 AM
Tue, Oct 27
5:00 AM
Tue, Oct 27
6:00 AM
Tue, Oct 27
7:00 AM
Tue, Oct 27
8:00 AM
Tue, Oct 27
9:00 AM
Tue, Oct 27
10:00 AM
Tue, Oct 27
11:00 AM
Tue, Oct 27
12:00 PM
Tue, Oct 27
1:00 PM
Tue, Oct 27
2:00 PM
Tue, Oct 27
3:00 PM
Tue, Oct 27
4:00 PM
Tue, Oct 27
5:00 PM
Tue, Oct 27
6:00 PM
Tue, Oct 27
7:00 PM
Tue, Oct 27
8:00 PM
Tue, Oct 27
9:00 PM
Tue, Oct 27
10:00 PM
Tue, Oct 27
11:00 PM
Wed, Oct 28
12:00 AM
Wed, Oct 28
1:00 AM
Wed, Oct 28
2:00 AM
Wed, Oct 28
3:00 AM
Wed, Oct 28
4:00 AM
Wed, Oct 28
5:00 AM
Wed, Oct 28
6:00 AM
Wed, Oct 28
7:00 AM
Wed, Oct 28
8:00 AM
Wed, Oct 28
9:00 AM
Wed, Oct 28
10:00 AM
Wed, Oct 28
11:00 AM
Wed, Oct 28
12:00 PM
Condition
Clouds

Clouds

Clouds

Clouds

Clouds

Clouds

Clouds

Clouds

Clear

Clouds

Clouds

Clouds

Clouds

Clouds

Clouds

Clouds

Clear

Clouds

Clouds

Clouds

Clouds

Clouds

Clouds

Clouds

Clouds

Clouds

Clouds

Clouds

Clouds

Clouds

Clouds

Clouds

Clouds

Clouds

Clouds

Clouds

Rain

Rain

Rain

Rain

Rain

Rain

Rain

Rain

Rain

Rain

Clouds

Clouds
Temperature 82°F83°F84°F83°F83°F82°F80°F78°F78°F77°F78°F77°F77°F77°F76°F76°F75°F75°F76°F76°F76°F77°F79°F79°F81°F82°F83°F83°F82°F81°F79°F78°F78°F77°F77°F77°F78°F78°F77°F77°F77°F77°F77°F77°F77°F78°F80°F80°F
Feels Like 90°F88°F88°F86°F86°F85°F84°F83°F83°F81°F81°F80°F78°F78°F77°F77°F76°F77°F77°F77°F77°F78°F80°F81°F82°F83°F84°F84°F83°F83°F83°F82°F82°F82°F81°F80°F79°F79°F79°F78°F78°F78°F78°F78°F78°F79°F81°F80°F
Cloudiness 75%46%38%33%22%20%16%14%1%15%29%38%36%34%15%15%10%15%26%37%100%100%88%89%89%83%21%38%49%55%61%67%100%100%100%100%100%100%100%100%100%94%92%93%100%100%100%100%
Visibility 6 mi6 mi6 mi6 mi6 mi6 mi6 mi6 mi6 mi6 mi6 mi6 mi6 mi6 mi6 mi6 mi6 mi6 mi6 mi6 mi6 mi6 mi6 mi6 mi6 mi6 mi6 mi6 mi6 mi6 mi6 mi6 mi6 mi6 mi6 mi6 mi6 mi6 mi6 mi6 mi6 mi6 mi6 mi6 mi6 mi6 mi6 mi6 mi
Precipitation 0%0%0%0%0%0%0%0%0%0%0%10%4%4%5%8%14%14%14%14%17%13%13%14%14%15%35%40%41%41%37%30%0%12%23%27%30%37%53%52%55%53%54%54%35%29%29%26%
Humidity 78%70%66%65%63%66%71%74%75%75%75%77%82%83%83%84%86%87%86%86%86%84%79%78%74%70%69%69%71%74%78%80%81%82%83%82%82%81%81%82%82%85%86%86%86%83%78%77%
Dew Point 75°F72°F71°F70°F69°F70°F70°F69°F69°F69°F69°F70°F71°F71°F71°F71°F71°F71°F72°F72°F72°F72°F72°F72°F72°F72°F72°F71°F71°F72°F72°F72°F72°F72°F71°F72°F72°F72°F71°F71°F71°F72°F72°F72°F73°F73°F73°F73°F
Pressure 30.03"30.03"29.97"29.94"29.94"29.94"29.97"30"30.03"30.03"30.06"30.06"30.06"30.03"30.03"30.03"30.03"30.03"30.03"30.06"30.06"30.06"30.06"30.09"30.06"30.06"30.03"30"30"30"30"30.03"30.06"30.06"30.06"30.06"30.03"30.03"30.03"30"30"29.97"29.97"29.97"30"30"30"30"
Wind Speed 5.1 mph6 mph6.9 mph7.4 mph8.3 mph7.6 mph5.1 mph4.4 mph4.4 mph5.6 mph6.5 mph8.8 mph11.4 mph12.1 mph12.1 mph12.2 mph12.5 mph12.6 mph12.5 mph12.3 mph12.8 mph12.8 mph13.1 mph13.1 mph12.9 mph13.3 mph13.2 mph12.7 mph12.3 mph10.8 mph8.6 mph7.5 mph7.1 mph7.4 mph8.3 mph10.2 mph12.2 mph12.8 mph12.5 mph12.6 mph13.1 mph13.2 mph13.6 mph14.3 mph15 mph15.1 mph15.4 mph15.3 mph
Wind
Direction
88°
E
120°
ESE
127°
SE
125°
SE
124°
SE
120°
ESE
115°
ESE
97°
E
66°
ENE
40°
NE
48°
NE
75°
ENE
93°
E
94°
E
96°
E
91°
E
89°
E
90°
E
91°
E
92°
E
89°
E
86°
E
96°
E
103°
ESE
109°
ESE
116°
ESE
124°
SE
126°
SE
129°
SE
125°
SE
114°
ESE
98°
E
94°
E
90°
E
83°
E
83°
E
90°
E
92°
E
96°
E
93°
E
98°
E
102°
ESE
108°
ESE
109°
ESE
113°
ESE
117°
ESE
121°
ESE
125°
SE

Daily Forecast

Date High Low Precip. Humidity
Today
Oct 26

Clouds
83 °F
70 °F
0%
70%
Tuesday
Oct 27

Rain
82 °F
75 °F
41%
70%
Wednesday
Oct 28

Rain
82 °F
77 °F
55%
71%
Thursday
Oct 29

Rain
82 °F
77 °F
82%
76%
Friday
Oct 30

Rain
74 °F
62 °F
56%
43%
Saturday
Oct 31

Clouds
75 °F
61 °F
28%
70%
Sunday
Nov 1

Rain
74 °F
68 °F
95%
81%
Monday
Nov 2

Rain
77 °F
64 °F
40%
60%
Tuesday
Nov 3

Clear
77 °F
62 °F
14%
56%
Wednesday
Nov 4

Clouds
77 °F
62 °F
0%
55%
Thursday
Nov 5

Clouds
78 °F
64 °F
15%
55%
Friday
Nov 6

Clouds
74 °F
64 °F
3%
57%
Saturday
Nov 7

Clouds
70 °F
58 °F
0%
49%
Sunday
Nov 8

Clear
66 °F
48 °F
0%
44%
Monday
Nov 9

Clear
74 °F
52 °F
3%
56%
Tuesday
Nov 10

Clear
76 °F
58 °F
0%
50%


Temperature 8-14 Day Outlook



Precipitation 8-14 Day Outlook




Quick Links
Port Saint Joe - Mexico Beach News
Port Saint Joe - Mexico Beach Photos
Port Saint Joe - Mexico Beach Videos




About Us
Contact Us
Site Map
Search Site
Advertise With Us
   
PortSaintJoe.USGulf.info
THE PORT SAINT JOE - MEXICO BEACH WEBSITE

Copyright 2020, Coastal Town
Privacy    |    Legal